sat.trackr.live / text

‹ back to catalog

STARLINK-3261

NORAD 50193 · 2021-125AP

PAYLOAD ACTIVE UNKNOWN

§ Identity

Operator
Country
US
Launch date
2021-12-18
Launch site
AFWTR
Launch vehicle
Mass (kg)
RCS (m²)

Purposes: comms

External: N2YO · Heavens-Above · Gunter

§ Orbital elements

Epoch: 2026-05-25T00:28:10.715808Z

Period
95.44 min
Inclination
53.2154°
Eccentricity
0.0001152
Mean motion
15.08838009 rev/d
Perigee alt
539.0 km
Apogee alt
540.5 km
Semi-major
6,917.9 km
B*
4.4295e-5
RAAN
256.4615°
Arg perigee
90.6197°
Mean anomaly
269.4927°
Rev number
24,830

§ Raw data

STARLINK-32611 50193U 21125AP  26145.01956847  .00000417  00000+0  44295-4 0  99962 50193  53.2154 256.4615 0001152  90.6197 269.4927 15.08838009248308

JSON: /api/v1/satellites/50193 · /tle

For live sub-satellite position, see the globe view (requires WebGL).

§ Visibility from observer

Set your observer location to see the next 7 days of passes ≥ 10°. The values pass through the URL so the page stays shareable.

No JS? Fill the form by hand. The geolocation button needs JavaScript.